Wind_Speed
14 13 13 13 14 14 14 14 14 13 12 11 11 9 8 8 7 6 5 4 4 3 2 2 1 1 1 2 3 4 3 3 3 3 5 6 6 6 7 8 8 8 10 9 9 8 8 8 8
14 14 14 14 14 15 15 15 15 14 13 12 11 10 10 9 7 6 5 4 4 3 2 2 2 3 3 3 3 3 3 3 2 3 6 6 6 7 7 7 8 9 9 9 9 9 8 8 8
14 14 15 15 15 15 15 15 15 15 14 12 12 11 11 9 8 7 5 4 4 3 2 3 3 3 4 4 3 2 2 3 3 4 5 6 6 6 7 7 8 9 9 10 10 10 9 8 8
15 14 15 16 15 15 16 16 15 15 14 13 12 11 11 10 9 7 6 5 4 3 3 3 3 3 3 4 3 3 3 3 4 4 5 6 7 7 7 7 9 10 10 10 10 10 9 9 8
14 15 15 16 16 16 16 16 16 16 15 14 12 11 11 10 9 8 7 5 4 3 3 3 3 3 3 4 3 3 4 4 4 4 5 5 6 8 8 9 9 10 10 10 11 10 10 9 8
14 15 16 16 16 16 16 16 17 16 15 14 13 12 11 11 9 8 7 6 5 4 4 4 4 4 3 3 3 3 3 4 3 3 4 5 6 7 8 10 10 10 10 10 11 10 10 8 8
15 15 17 16 16 16 16 16 17 17 16 15 14 13 12 11 10 9 8 7 6 5 4 4 4 3 3 3 2 2 3 4 3 3 4 5 6 7 9 9 10 10 10 11 11 10 10 8 7
15 16 17 16 16 15 16 16 17 17 16 15 14 13 12 12 11 11 9 8 7 6 5 4 4 3 3 2 2 2 3 3 4 4 4 4 5 7 8 9 10 10 10 11 10 10 9 9 8
15 15 16 17 16 16 16 16 16 16 16 15 15 14 13 13 12 11 10 9 8 6 5 5 4 4 3 2 2 2 2 4 5 4 4 4 5 6 7 8 9 9 10 10 10 10 10 9 8
13 14 16 16 17 17 17 16 16 17 16 15 15 14 13 13 13 12 11 10 9 8 6 5 5 5 4 4 3 2 3 4 5 4 4 4 4 6 6 7 9 9 9 10 10 10 10 9 8
11 13 14 14 15 15 16 17 17 16 16 16 16 14 13 12 12 12 11 11 10 9 8 7 6 5 5 4 4 3 4 4 4 4 4 5 5 5 6 7 8 9 9 9 9 9 9 8 8
9 11 12 13 13 14 15 16 17 17 16 16 15 14 13 13 12 12 11 11 10 9 8 7 7 7 6 5 4 4 4 4 4 5 4 5 6 6 6 7 7 8 9 9 9 8 8 8 7
6 8 9 10 11 12 13 14 15 16 16 16 15 14 14 14 13 13 12 11 10 9 8 7 7 7 6 5 5 5 4 5 6 6 5 5 6 6 7 7 8 8 7 8 8 8 8 7 8
3 5 5 8 9 10 12 12 14 14 15 15 15 15 14 14 14 13 12 11 10 9 8 8 8 8 7 7 6 6 7 6 6 6 5 5 6 7 7 7 7 7 7 7 7 7 7 7 7
0 2 4 6 7 9 10 11 12 12 13 14 14 14 14 14 13 12 12 11 10 9 8 8 8 8 8 7 6 6 6 6 5 5 4 5 5 6 7 6 6 7 7 7 6 7 7 7 7
3 1 1 3 6 7 8 9 10 10 11 12 13 13 13 14 13 12 12 11 10 10 9 8 8 8 8 8 6 6 6 5 5 5 4 5 4 4 4 5 6 7 7 6 6 7 6 6 7
5 3 1 1 3 4 5 6 7 8 9 10 11 12 12 13 12 11 11 11 10 9 9 8 7 7 7 8 7 6 6 5 5 5 5 5 4 3 3 5 6 6 6 6 6 5 6 6 6
7 5 3 2 3 3 3 3 5 7 7 8 9 10 11 12 11 10 10 10 10 9 8 7 7 6 6 7 7 7 6 6 6 5 5 5 4 4 3 4 5 5 6 6 6 6 6 5 6
9 8 6 5 5 3 2 3 3 4 6 7 8 8 9 10 10 9 9 9 8 8 7 7 6 6 6 6 6 6 6 6 6 6 5 5 4 4 4 4 3 3 4 5 5 5 5 5 6
11 10 8 6 7 6 5 3 2 3 4 5 6 7 7 8 9 8 8 7 7 7 6 6 6 5 5 6 6 5 5 5 5 6 5 4 3 3 3 2 2 2 3 4 4 4 3 4 5
12 11 10 9 9 8 7 5 4 3 3 4 5 6 8 7 7 8 6 6 5 5 5 5 5 4 5 5 5 5 4 4 4 4 4 3 3 3 2 1 1 2 3 3 3 4 4 4 4
13 12 12 11 11 10 9 7 6 5 4 4 5 5 7 7 6 6 6 5 4 4 3 3 3 3 3 3 3 3 3 3 3 4 4 3 3 2 1 1 1 1 2 3 3 3 3 4 5
14 13 14 13 13 11 11 10 7 7 6 5 5 6 6 7 6 6 6 5 4 3 3 2 2 2 1 1 2 1 1 2 2 2 3 2 2 1 0 1 1 1 2 3 3 4 5 5 5
16 16 16 15 15 14 12 12 9 9 9 8 7 7 7 6 6 6 5 4 4 3 3 3 2 2 1 1 0 1 1 1 1 0 1 1 0 0 1 2 3 3 3 4 5 5 6 7 7
18 18 17 17 17 15 13 14 11 10 9 9 8 8 8 7 6 6 6 4 4 4 3 3 2 2 2 3 3 2 2 2 2 1 2 2 1 2 3 3 4 5 5 5 6 7 7 7 7
20 19 19 19 18 17 15 14 12 10 10 9 9 9 9 8 7 7 7 5 5 6 6 5 3 4 3 3 3 3 3 3 3 3 3 3 3 4 4 5 6 6 7 8 8 8 8 8 9
22 22 21 21 20 19 18 16 14 12 11 11 10 10 10 10 9 9 8 8 8 7 7 7 5 5 4 4 4 4 4 4 5 5 5 5 5 6 7 7 7 8 9 10 11 11 10 10 10
23 23 22 22 21 21 19 17 16 14 13 13 12 11 11 12 11 11 11 9 8 8 8 8 7 7 7 6 5 5 5 6 7 7 8 8 9 9 9 9 9 10 10 11 11 12 12 12 12
24 24 23 22 22 22 22 19 17 17 16 15 14 13 13 13 13 12 12 11 10 10 10 9 9 8 7 7 7 7 7 8 8 9 10 11 11 11 12 12 12 12 12 13 13 13 13 13 14
25 25 23 23 23 23 24 21 19 18 18 18 17 16 15 15 14 14 13 12 12 12 11 11 10 9 9 9 9 10 10 11 11 12 13 14 14 13 14 14 14 14 14 14 15 15 15 15 15
Wind_Direction
79 76 73 69 70 68 64 60 57 56 55 52 49 47 46 42 35 35 38 46 57 58 72 77 71 73 98 114 124 120 126 144 162 179 176 171 176 182 179 177 179 176 175 175 174 172 177 178 181
82 77 75 71 70 69 64 60 57 54 52 48 43 41 40 38 37 40 39 45 53 58 70 85 86 88 107 123 127 128 130 138 158 169 174 171 173 184 184 181 179 177 179 180 179 175 178 182 183
82 79 76 73 71 69 66 62 58 54 50 46 42 38 36 36 37 37 38 42 46 54 65 82 92 97 107 114 139 136 134 134 148 157 163 171 176 182 187 186 180 179 180 183 184 180 179 179 184
83 84 76 72 70 69 67 64 60 56 50 44 40 36 35 37 36 34 36 41 46 58 76 87 99 114 121 120 130 127 133 141 157 155 164 172 179 181 184 188 184 184 181 180 183 181 181 182 185
85 80 73 69 67 66 65 65 61 56 49 43 38 36 37 36 35 34 35 41 53 70 89 102 116 122 125 123 125 124 141 148 161 165 165 172 183 182 186 187 185 187 185 182 182 180 181 184 187
83 82 76 70 66 61 59 60 58 53 48 44 39 39 39 37 39 36 38 46 58 76 101 107 110 113 116 125 135 139 153 161 170 170 169 177 184 183 184 184 184 185 184 182 182 179 183 185 186
83 80 76 71 65 59 56 58 56 49 46 44 40 39 39 38 38 38 41 47 57 78 93 103 100 104 116 129 141 150 169 168 171 175 170 176 180 184 186 186 185 183 179 180 182 179 181 183 187
83 79 74 70 65 56 54 54 51 44 40 40 39 39 39 40 39 40 44 49 63 75 82 88 87 93 101 105 131 153 167 172 169 178 171 175 184 186 188 191 190 186 186 186 184 182 182 186 186
83 75 71 66 62 59 55 52 48 44 40 38 36 35 37 38 40 41 45 50 58 67 71 72 81 88 95 92 117 141 159 166 165 169 172 176 181 184 184 192 190 186 185 186 185 187 187 187 186
82 75 70 68 63 59 53 48 45 43 40 39 34 33 35 39 44 43 44 47 51 58 62 67 79 85 91 100 113 135 151 160 164 165 164 171 175 171 168 175 180 181 184 184 184 186 189 192 194
86 78 75 69 63 56 51 44 41 41 39 38 37 37 37 39 42 44 46 47 51 58 61 67 71 81 86 93 102 119 145 154 155 154 156 155 156 153 152 158 169 175 179 182 183 186 189 196 203
91 81 77 71 65 58 50 43 39 40 38 37 38 36 39 42 41 42 46 50 54 59 63 68 68 75 85 97 105 112 129 140 141 140 151 150 148 151 150 152 162 171 175 178 182 188 191 198 206
93 79 77 73 67 59 54 47 40 38 38 36 35 33 36 42 41 43 44 48 54 59 64 67 69 72 73 83 99 104 119 133 133 134 134 137 148 158 159 161 158 168 175 179 185 190 194 201 211
87 74 71 70 67 59 53 49 40 37 36 36 34 34 37 40 40 42 45 50 54 58 65 68 69 70 70 73 88 101 111 121 133 131 126 137 148 156 161 158 157 163 174 181 188 196 198 207 215
186 72 78 65 66 59 50 45 38 35 35 38 37 35 34 36 37 40 44 49 54 58 64 69 71 71 70 71 80 97 110 108 122 123 119 135 149 156 161 159 160 164 170 181 187 198 206 211 217
231 238 82 55 60 56 49 45 39 36 38 39 36 32 32 32 37 41 44 48 53 57 64 70 71 72 73 75 85 101 109 111 117 114 115 127 135 152 165 169 166 170 175 181 184 194 209 216 220
240 256 293 359 28 39 43 42 35 34 39 41 37 32 30 32 37 42 44 47 51 56 63 68 68 72 73 77 88 94 102 108 114 107 104 107 114 131 132 155 169 177 181 185 190 198 213 221 225
246 253 270 302 330 349 26 30 28 28 40 42 35 32 30 31 35 38 38 43 47 51 60 66 65 65 69 78 85 84 92 102 107 104 104 106 110 108 117 147 165 173 179 187 196 203 219 228 233
245 252 264 287 302 301 331 340 3 26 35 32 26 29 31 32 31 34 34 39 43 46 53 62 66 67 69 71 82 90 95 105 113 103 100 99 102 106 120 131 138 171 187 196 206 218 232 237 242
240 248 255 268 281 283 288 289 306 347 14 16 19 22 24 24 24 27 33 33 37 39 45 54 62 66 67 70 81 96 98 103 108 110 107 109 106 108 111 125 156 189 202 210 230 236 238 245 242
239 246 253 266 273 275 275 275 278 300 314 342 354 6 12 11 13 16 20 21 23 30 39 46 56 65 69 69 71 80 95 99 97 109 112 112 112 98 100 116 174 207 212 230 243 243 246 251 249
242 249 253 262 269 273 271 271 271 277 295 316 329 343 352 356 357 1 3 3 12 17 29 42 48 57 67 70 77 82 92 90 88 92 101 107 111 98 90 117 170 230 234 245 259 261 261 258 258
241 244 252 259 265 264 268 273 275 276 291 303 315 321 326 340 339 344 353 349 352 349 350 5 15 25 48 61 63 69 85 99 103 89 92 94 97 110 153 285 285 261 271 273 274 276 271 270 270
240 242 249 255 260 261 267 275 278 276 287 293 296 302 304 319 324 322 329 327 326 321 320 321 332 334 299 275 277 290 288 248 231 150 84 61 84 270 292 292 284 276 284 284 280 281 277 278 276
241 243 247 253 257 264 268 274 279 277 277 284 292 294 295 304 312 313 320 314 301 300 289 292 292 307 272 258 255 258 275 279 265 258 271 292 290 282 281 280 280 280 280 287 285 282 280 280 279
240 243 249 256 261 264 264 270 277 278 277 281 288 297 296 302 306 304 303 299 292 284 286 284 288 307 279 268 271 268 274 271 266 267 271 276 277 280 280 274 271 274 277 284 288 286 284 278 278
240 243 248 256 261 264 266 269 269 274 275 278 285 293 296 298 297 295 295 292 287 279 282 282 286 292 280 268 264 258 268 267 267 272 274 279 279 280 281 282 279 276 278 283 284 285 285 282 279
240 243 247 253 259 262 265 268 271 270 274 277 282 284 287 291 289 291 290 290 287 284 288 285 281 283 277 270 262 256 254 259 270 274 274 276 278 279 279 279 279 279 280 284 284 283 283 284 282
239 242 245 250 257 261 264 267 273 274 274 278 281 281 283 288 287 286 286 287 284 287 284 284 278 274 271 268 265 260 260 263 267 271 273 275 278 279 275 274 276 277 279 282 282 281 282 282 282
241 243 245 250 255 259 264 267 271 274 274 277 278 280 281 284 285 284 282 283 283 284 283 282 273 267 268 268 268 268 266 266 266 268 271 272 272 276 276 274 274 277 280 281 281 280 281 281 281
Height
5881 5881 5881 5881 5881 5879 5878 5877 5876 5875 5874 5874 5873 5872 5872 5872 5872 5874 5871 5869 5869 5869 5868 5868 5867 5867 5867 5867 5868 5868 5869 5870 5870 5871 5871 5872 5873 5874 5875 5877 5878 5880 5881 5883 5885 5887 5889 5891 5892
5883 5883 5884 5883 5881 5880 5880 5878 5877 5877 5876 5875 5874 5873 5872 5872 5871 5871 5870 5869 5869 5869 5868 5868 5867 5866 5867 5867 5868 5868 5869 5869 5869 5870 5871 5871 5873 5874 5875 5876 5877 5879 5881 5883 5884 5887 5889 5891 5893
5885 5885 5886 5884 5883 5882 5881 5880 5879 5878 5877 5876 5875 5874 5873 5872 5871 5870 5870 5869 5869 5869 5868 5867 5867 5867 5867 5867 5868 5868 5868 5869 5869 5870 5870 5871 5872 5873 5874 5876 5877 5879 5881 5882 5885 5887 5889 5891 5893
5888 5888 5887 5886 5885 5884 5883 5882 5880 5879 5878 5877 5876 5875 5874 5873 5872 5871 5870 5870 5869 5869 5868 5867 5867 5867 5867 5867 5868 5868 5868 5868 5869 5870 5870 5871 5872 5873 5874 5875 5877 5879 5881 5882 5885 5887 5889 5892 5893
5890 5890 5889 5888 5887 5886 5884 5883 5882 5881 5880 5879 5878 5876 5875 5874 5873 5872 5871 5870 5869 5869 5868 5867 5866 5866 5867 5867 5868 5868 5868 5868 5869 5870 5870 5871 5871 5872 5873 5875 5876 5878 5880 5882 5884 5887 5890 5892 5893
5892 5891 5891 5889 5888 5887 5886 5885 5884 5883 5881 5880 5879 5878 5876 5875 5874 5872 5871 5870 5869 5869 5868 5867 5867 5866 5867 5868 5868 5868 5868 5868 5869 5870 5870 5870 5871 5872 5873 5874 5876 5877 5879 5882 5884 5887 5890 5892 5893
5894 5893 5892 5891 5890 5889 5888 5886 5885 5884 5883 5882 5880 5879 5877 5876 5875 5873 5872 5870 5869 5869 5868 5868 5867 5867 5867 5868 5867 5868 5868 5868 5869 5869 5870 5870 5871 5872 5873 5874 5876 5878 5880 5882 5885 5887 5889 5891 5893
5895 5895 5893 5893 5892 5891 5890 5888 5887 5886 5885 5883 5882 5880 5879 5877 5876 5874 5872 5871 5870 5869 5869 5868 5868 5867 5867 5868 5868 5868 5868 5868 5868 5869 5870 5870 5871 5871 5873 5874 5876 5878 5880 5882 5885 5887 5889 5891 5893
5897 5897 5895 5895 5894 5893 5892 5890 5889 5887 5886 5884 5883 5882 5880 5878 5877 5875 5874 5872 5871 5870 5869 5868 5868 5868 5868 5868 5868 5867 5867 5868 5868 5869 5869 5870 5871 5871 5872 5874 5876 5878 5880 5883 5885 5887 5889 5891 5893
5898 5898 5898 5897 5896 5895 5893 5892 5891 5889 5888 5886 5884 5883 5881 5879 5878 5876 5875 5873 5872 5871 5870 5869 5869 5868 5868 5868 5868 5867 5867 5868 5868 5868 5869 5870 5871 5871 5872 5874 5876 5878 5880 5883 5885 5887 5889 5891 5892
5900 5900 5899 5898 5897 5896 5895 5894 5892 5891 5889 5888 5886 5884 5882 5881 5879 5878 5876 5874 5873 5872 5871 5870 5870 5869 5868 5868 5868 5867 5867 5868 5868 5869 5869 5870 5871 5871 5871 5874 5876 5878 5880 5883 5885 5887 5889 5891 5892
5901 5901 5901 5900 5899 5898 5897 5896 5895 5893 5892 5890 5888 5886 5884 5882 5880 5879 5877 5875 5874 5873 5872 5871 5870 5869 5869 5868 5868 5867 5867 5868 5869 5869 5869 5870 5871 5872 5873 5874 5876 5878 5881 5883 5885 5887 5889 5891 5892
5902 5902 5902 5901 5900 5899 5898 5897 5897 5895 5894 5891 5889 5887 5885 5883 5881 5880 5878 5876 5875 5874 5873 5872 5871 5871 5870 5869 5868 5868 5868 5869 5869 5869 5870 5871 5872 5872 5874 5876 5877 5879 5881 5883 5885 5887 5889 5890 5891
5903 5903 5903 5902 5901 5900 5899 5899 5898 5897 5895 5893 5891 5889 5887 5885 5883 5881 5879 5878 5876 5875 5875 5874 5873 5872 5871 5870 5870 5870 5869 5869 5870 5871 5871 5872 5872 5873 5875 5876 5878 5879 5881 5883 5885 5887 5888 5889 5890
5903 5904 5904 5903 5902 5901 5901 5900 5899 5898 5897 5895 5893 5891 5889 5887 5885 5883 5881 5880 5878 5877 5876 5875 5875 5874 5873 5872 5872 5871 5871 5871 5871 5872 5872 5872 5873 5874 5875 5876 5877 5879 5881 5883 5885 5886 5888 5889 5890
5904 5904 5904 5904 5903 5902 5903 5902 5901 5899 5898 5896 5895 5893 5891 5889 5887 5885 5883 5882 5880 5879 5878 5877 5876 5875 5875 5874 5873 5873 5872 5872 5873 5873 5873 5874 5875 5875 5876 5877 5878 5879 5881 5883 5885 5886 5888 5888 5889
5903 5903 5903 5904 5903 5902 5902 5902 5902 5900 5899 5897 5896 5894 5892 5890 5888 5887 5885 5883 5882 5881 5880 5879 5878 5877 5876 5876 5875 5874 5874 5874 5874 5875 5875 5876 5876 5876 5877 5877 5879 5879 5881 5883 5885 5886 5887 5888 5888
5903 5903 5903 5903 5903 5902 5902 5902 5902 5901 5900 5898 5897 5895 5893 5891 5890 5888 5886 5885 5884 5882 5881 5880 5880 5879 5878 5877 5876 5876 5875 5875 5875 5876 5876 5877 5877 5878 5878 5879 5879 5880 5882 5883 5884 5886 5886 5887 5888
5901 5902 5902 5903 5902 5902 5902 5902 5902 5901 5900 5899 5897 5896 5894 5892 5891 5889 5887 5886 5885 5884 5883 5882 5881 5880 5879 5878 5878 5877 5877 5877 5877 5877 5877 5878 5879 5879 5880 5880 5881 5882 5883 5883 5884 5885 5885 5886 5887
5900 5901 5901 5901 5901 5901 5901 5902 5901 5901 5900 5899 5898 5896 5895 5893 5891 5890 5888 5887 5886 5885 5884 5883 5882 5881 5881 5880 5879 5879 5878 5878 5878 5878 5879 5880 5880 5881 5881 5881 5882 5882 5883 5883 5884 5884 5885 5885 5886
5898 5899 5900 5900 5900 5900 5901 5901 5901 5900 5899 5899 5898 5897 5895 5893 5892 5891 5889 5888 5886 5886 5885 5884 5883 5882 5882 5881 5881 5880 5879 5879 5880 5880 5880 5880 5881 5881 5882 5882 5882 5883 5883 5883 5884 5884 5884 5884 5884
5897 5898 5898 5898 5898 5898 5900 5900 5900 5899 5899 5898 5897 5896 5895 5893 5892 5890 5889 5888 5887 5886 5885 5885 5884 5883 5883 5882 5882 5882 5882 5882 5881 5881 5881 5881 5882 5882 5882 5883 5883 5883 5883 5883 5883 5883 5884 5883 5883
5895 5896 5896 5896 5896 5897 5897 5898 5899 5898 5898 5898 5897 5896 5894 5893 5891 5890 5888 5888 5887 5886 5886 5885 5884 5883 5883 5883 5883 5883 5883 5883 5882 5882 5882 5883 5883 5883 5883 5883 5883 5883 5883 5883 5883 5883 5883 5883 5882
5892 5893 5893 5894 5894 5895 5896 5896 5897 5896 5896 5896 5895 5894 5893 5892 5891 5889 5888 5887 5886 5885 5885 5885 5884 5883 5883 5883 5883 5883 5883 5883 5883 5883 5883 5883 5883 5883 5883 5883 5882 5882 5882 5882 5882 5882 5882 5882 5881
5889 5891 5891 5891 5891 5892 5894 5893 5895 5894 5894 5894 5893 5892 5892 5891 5890 5889 5887 5887 5886 5885 5884 5884 5883 5883 5882 5882 5882 5882 5883 5883 5883 5883 5883 5883 5883 5883 5882 5882 5882 5882 5881 5881 5881 5881 5881 5880 5879
5885 5887 5888 5888 5889 5890 5890 5890 5892 5892 5892 5892 5892 5891 5890 5889 5888 5887 5886 5885 5885 5884 5883 5883 5882 5882 5882 5882 5882 5882 5882 5882 5882 5882 5882 5882 5882 5882 5882 5881 5881 5880 5880 5880 5880 5879 5878 5878 5877
5881 5882 5884 5885 5885 5886 5887 5888 5889 5889 5889 5890 5890 5889 5888 5887 5886 5885 5884 5884 5883 5882 5882 5881 5881 5881 5881 5881 5881 5881 5881 5881 5881 5881 5881 5881 5881 5881 5880 5880 5879 5879 5879 5878 5878 5877 5876 5875 5875
5877 5878 5880 5880 5881 5881 5882 5884 5885 5886 5887 5887 5887 5887 5886 5885 5884 5883 5882 5881 5881 5880 5879 5879 5879 5879 5879 5879 5879 5879 5879 5879 5880 5880 5880 5879 5879 5879 5878 5878 5878 5877 5877 5876 5875 5874 5873 5873 5872
5871 5873 5874 5876 5877 5877 5878 5882 5882 5883 5883 5884 5884 5884 5883 5882 5881 5880 5879 5879 5878 5878 5877 5877 5876 5876 5877 5877 5877 5878 5877 5877 5878 5878 5877 5877 5877 5876 5876 5875 5875 5874 5874 5873 5872 5871 5870 5869 5868
5866 5868 5870 5871 5872 5873 5874 5879 5877 5878 5879 5880 5880 5880 5880 5879 5878 5877 5876 5876 5875 5875 5874 5874 5873 5873 5874 5874 5875 5875 5875 5875 5875 5875 5874 5874 5873 5873 5873 5872 5872 5871 5870 5869 5868 5868 5866 5865 5864